STARLINK-4128 (53249 NORAD) Tracking and Keplerian Element Data

This shows tracking and keplerian element data for the satellite.

Feedback or suggestion? Click here.




ElementValue
Catalog53249
NameSTARLINK-4128
Epoch Orbit130
Epoch Day269.91667824
Epoch Year2022
RAAN89.6325
Inclination53.217
Eccentricity0.0001555
Argument of Perigee49.7948
Mean Anonmoly26.4766
Mean Motion15.18267481
Decay Rate-0.01049666
L11 53249U 22086H 22269.91667824 -.01049666 00000+0 -55243-1 0 9998
L22 53249 53.2170 89.6325 0001555 49.7948 26.4766 15.18267481 1301

Live tracking and technical data element details for STARLINK-4128 (NORAD 53249). STARLINK-4128 can be tracked NOW for your location showing map with azimuth and elevation plus other details from your city location.

Track the satellite on the map from your city or location and see movement details for azimuth, elevation, latitude, longitude, range, height, and movement on the map or in text.







IsCatalogInMostPopularTable: catalog: 53249, numindb: 3
Update: records affected: 1



GetName: 53249 STARLINK-4128

Hit Count: updated at: Fri, 30 Sep 2022 03:02:30 GMT